Powrót do katalogu

EXPLORER 22

AktywnyNaukaLEO
NORAD 899·PAYLOAD·🇺🇸 United States

Wystrzelony Oct 10, 1964 z Vandenberg Space Force Base

Loading…

Następne Przeloty (najbliższe 24 godziny)

TLE

ŚwieżeSource: Space-Track

Epoka: Sep 14, 2026, 15:44 UTC

1 00899U 64064A   26257.65581429  .00000138  00000-0  11488-3 0  9995
2 00899  79.6919  29.0888 0118887 336.2197  23.3485 13.83074859117347

Śledź EXPLORER 22 w czasie rzeczywistym z AllMySat

Download on the App Store